Location: Home
(42.5358°N, 72.7383°W)
Time: 00:26:16
(UTC-05:00)

Vanguard 1 - Pass Details

Date: 05 December 2021
Orbit: 652 x 3830 km, 34.2° (Epoch: 21 January)

Event Time Altitude Azimuth Distance (km) Brightness Sun altitude
Rises 02:34:30 0° 268° (W) 7,825 - -48.9°
Reaches altitude 10° 02:39:45 10° 266° (W) 6,907 - -48.0°
Exits shadow 03:01:18 64° 209° (SSW) 3,702 12.5 -44.1°
Maximum altitude 03:02:50 65° 192° (SSW) 3,611 12.5 -43.9°
Drops below altitude 10° 03:18:50 10° 115° (ESE) 5,037 14.2 -40.9°
Sets 03:21:58 0° 112° (ESE) 5,701 14.7 -40.4°
